GRIFEX (40379 NORAD) Tracking and Keplerian Element Data

This shows tracking and keplerian element data for the satellite.

Feedback or suggestion? Click here.




ElementValue
Catalog40379
NameGRIFEX
Epoch Orbit31636
Epoch Day298.20368658
Epoch Year2020
RAAN15.9637
Inclination99.0901
Eccentricity0.0130782
Argument of Perigee271.3106
Mean Anonmoly87.3143
Mean Motion15.16760327
Decay Rate2.23E-05
L11 40379U 15003D 20298.20368658 .00002230 00000-0 95982-4 0 9995
L22 40379 99.0901 15.9637 0130782 271.3106 87.3143 15.16760327316368

Live tracking and technical data element details for GRIFEX (NORAD 40379). GRIFEX can be tracked NOW for your location showing map with azimuth and elevation plus other details from your city location.

Track the satellite on the map from your city or location and see movement details for azimuth, elevation, latitude, longitude, range, height, and movement on the map or in text.







IsCatalogInMostPopularTable: catalog: 40379, numindb: 240
Update: records affected: 1



GetName: 40379 GRIFEX

Hit Count: updated at: Sun, 25 Oct 2020 08:22:09 GMT